Home > Weather > Nukualofa > Past weeks

Flag for Tonga Past Weather in Nukualofa, Tonga — Yesterday and Last 2 Weeks

Now
72 °F

Passing clouds.


Feels Like: 76 °F
Forecast: 70 / 75 °F
Wind: 2 mph from North

Location: Fua'Amotu

Current Time: Aug 27, 2016 at 3:05:24 AM

Latest Report: Aug 27, 2016 at 2:00 AM


Visibility: N/A

Pressure: 30.18 "Hg

Humidity: 61%

Dew Point: 57 °F

Location of NukualofaLocation

Past Weather in Nukualofa — Graph

°F

Nukualofa Temperature Yesterday

Maximum temperature yesterday: 77 °F (at 1:00 PM)
Minimum temperature yesterday: 68 °F (at 12:00 AM)
Average temperature yesterday: 72 °F

High & Low Weather Summary for the Past Weeks

 TemperatureHumidityPressure
High77 °F (Aug 13, 1:00 PM)100% (Aug 17, 6:00 AM)30.21 "Hg (Aug 17, 6:00 AM)
Low61 °F (Aug 21, 7:00 AM)47% (Aug 25, 3:00 PM)29.83 "Hg (Aug 18, 3:00 AM)
Average71 °F76%30.01 "Hg
* Reported Aug 12 2:00 AM — Aug 27 2:00 AM, Nukualofa, Weather by CustomWeather, © 2016

Note: Actual official high and low records may vary slightly from our data, if they occured in-between our weather recording intervals... More about our weather records

Advertising

Nukualofa Weather History for the Previous 24 Hours

Scroll right to see more
 ConditionsComfort  
Time TempWeatherWind HumidityBarometerVisibility
2:00 AM
Sat, Aug 27
72 °FPassing clouds.2 mph61%30.18 "HgN/A
1:00 AM72 °FPassing clouds.2 mph65%30.21 "HgN/A
12:00 AM72 °FPassing clouds.6 mph65%30.21 "HgN/A
11:00 PM
Fri, Aug 26
72 °FPassing clouds.No wind65%30.21 "HgN/A
10:00 PM72 °FPassing clouds.No wind61%30.21 "HgN/A
9:00 PM72 °FPassing clouds.5 mph61%30.21 "HgN/A
8:00 PM72 °FPassing clouds.3 mph61%30.21 "HgN/A
7:00 PM72 °FPassing clouds.No wind61%30.18 "HgN/A
6:00 PM73 °FPassing clouds.5 mph61%30.15 "HgN/A
5:00 PM75 °FPartly sunny.3 mph54%30.15 "HgN/A
4:00 PM77 °FPartly sunny.6 mph54%30.15 "HgN/A
3:00 PM77 °FPartly sunny.6 mph54%30.15 "HgN/A
2:00 PM77 °FPartly sunny.6 mph54%30.15 "HgN/A
1:00 PM77 °FPartly sunny.6 mph54%30.18 "HgN/A
12:00 PM75 °FPartly sunny.5 mph57%30.21 "HgN/A
11:00 AM75 °FPartly sunny.5 mph69%30.18 "HgN/A
10:00 AM73 °FPartly sunny.6 mph61%30.21 "HgN/A
9:00 AM72 °FPartly sunny.2 mph65%30.21 "HgN/A
8:00 AM70 °FPartly sunny.No wind64%30.18 "HgN/A
7:00 AM70 °FPartly sunny.5 mph60%30.15 "HgN/A
6:00 AM70 °FPartly sunny.2 mph64%30.15 "HgN/A
5:00 AM70 °FPassing clouds.5 mph64%30.12 "HgN/A
4:00 AM70 °FPassing clouds.No wind64%30.12 "HgN/A
3:00 AM68 °FPassing clouds.3 mph69%30.12 "HgN/A
Weather by CustomWeather, © 2016

See weather overviewHow to use our weather pages